Weather History for Jackson, MS

Change the Weather History Date:

Friday, September 21, 2012

  Actual Average Record
Temperature  
Mean Temperature 70 °F 74 °F  
Max Temperature 85 °F 85 °F 105 °F (1925)
Min Temperature 55 °F 63 °F 43 °F (1918)
Degree Days  
Heating Degree Days 0 0  
Month to date heating degree days 1 0  
Since 1 July heating degree days 1 0  
Cooling Degree Days 5 9  
Month to date cooling degree days 249 257  
Year to date cooling degree days 2354 2056  
Growing Degree Days 20 (Base 50)    
Moisture  
Dew Point 59 °F    
Average Humidity 69    
Maximum Humidity 93    
Minimum Humidity 44    
Precipitation  
Precipitation 0.00 in 0.10 in 3.80 in (2013)
Month to date precipitation 1.93 2.08  
Year to date precipitation 54.64 39.36  
Sea Level Pressure  
Sea Level Pressure 30.02 in    
Wind  
Wind Speed 2 mph (South)    
Max Wind Speed 12 mph    
Max Gust Speed 18 mph    
Visibility 10 miles    
Events      
T = Trace of Precipitation, MM = Missing Value Source: NWS Daily Summary

Daily Weather History Graph

Daily Weather History Graph

Search for Another Location

Airport:

Trip Planner

Search our weather history database for the weather conditions in past years. The results will help you decide how hot, cold, wet, or windy it might be!

Date:

Astronomy

Sep. 21, 2012 Rise Set
Actual Time 6:48 AM CDT 6:57 PM CDT
Civil Twilight 6:23 AM CDT 7:22 PM CDT
Nautical Twilight 5:55 AM CDT 7:50 PM CDT
Astronomical Twilight 5:26 AM CDT 8:19 PM CDT
Moon 12:48 PM CDT (9/21) 11:19 PM CDT (9/21)
Length of Visible Light 12h 58m
Length of Day
12h 09m
Waxing Crescent, 37% of the Moon is Illuminated
Sep 21
Waxing Crescent
Sep 22
First Quarter
Sep 29
Full
Oct 8
Last Quarter
Oct 15
New

Hourly Weather History & Observations

Time (CDT) Temp. Heat Index Dew Point Humidity Pressure Visibility Wind Dir Wind Speed Gust Speed Precip Events Conditions
12:54 AM 57.0 °F - 54.0 °F 89% 30.04 in 10.0 mi Calm Calm - N/A   Clear
1:54 AM 57.0 °F - 54.0 °F 89% 30.04 in 10.0 mi Calm Calm - N/A   Clear
2:54 AM 55.9 °F - 54.0 °F 93% 30.04 in 10.0 mi Calm Calm - N/A   Clear
3:54 AM 55.0 °F - 53.1 °F 93% 30.03 in 10.0 mi Calm Calm - N/A   Clear
4:54 AM 55.9 °F - 53.1 °F 90% 30.03 in 10.0 mi Calm Calm - N/A   Clear
5:54 AM 55.9 °F - 53.1 °F 90% 30.03 in 10.0 mi Calm Calm - N/A   Clear
6:54 AM 55.9 °F - 52.0 °F 87% 30.04 in 10.0 mi Calm Calm - N/A   Clear
7:54 AM 60.1 °F - 55.9 °F 86% 30.05 in 10.0 mi Calm Calm - N/A   Clear
8:54 AM 68.0 °F - 59.0 °F 73% 30.06 in 10.0 mi South 3.5 mph - N/A   Clear
9:54 AM 75.0 °F - 62.1 °F 64% 30.07 in 10.0 mi South 6.9 mph - N/A   Clear
10:54 AM 78.1 °F - 62.1 °F 58% 30.07 in 10.0 mi Variable 6.9 mph - N/A   Clear
11:54 AM 80.1 °F 81.2 °F 62.1 °F 54% 30.05 in 10.0 mi West 4.6 mph - N/A   Scattered Clouds
12:54 PM 82.0 °F 82.7 °F 61.0 °F 49% 30.04 in 10.0 mi Calm Calm - N/A   Scattered Clouds
1:54 PM 82.9 °F 83.3 °F 61.0 °F 47% 30.02 in 10.0 mi NE 8.1 mph - N/A   Mostly Cloudy
2:54 PM 84.0 °F 84.0 °F 60.1 °F 44% 29.99 in 10.0 mi Variable 3.5 mph - N/A   Partly Cloudy
3:54 PM 82.9 °F 83.2 °F 60.1 °F 46% 29.97 in 10.0 mi Calm Calm - N/A   Partly Cloudy
4:54 PM 82.9 °F 82.8 °F 59.0 °F 44% 29.96 in 10.0 mi South 4.6 mph - N/A   Clear
5:54 PM 81.0 °F 81.6 °F 60.1 °F 49% 29.97 in 10.0 mi South 6.9 mph - N/A   Clear
6:54 PM 73.9 °F - 64.9 °F 73% 29.98 in 10.0 mi Calm Calm - N/A   Clear
7:54 PM 69.1 °F - 64.9 °F 87% 29.98 in 10.0 mi Calm Calm - N/A   Clear
8:54 PM 66.9 °F - 63.0 °F 87% 29.99 in 10.0 mi Calm Calm - N/A   Clear
9:54 PM 66.9 °F - 62.1 °F 84% 29.99 in 10.0 mi SE 3.5 mph - N/A   Clear
10:54 PM 68.0 °F - 62.1 °F 81% 29.99 in 10.0 mi Calm Calm - N/A   Clear
11:54 PM 64.9 °F - 62.1 °F 90% 29.99 in 8.0 mi Calm Calm - N/A   Clear